SCP
0 0 0 0 0 0 0 0 0 0 0 0 0 0 0 0 0 0 0 0 0 0 0 0 0 0 0 0 0 0 0 0 0 0 0 0 0 0 0 0 0 0 0
0 0 0 0 0 0 0 0 0 0 0 0 0 0 0 0 0 0 0 0 0 0 0 0 0 0 0 0 0 0 0 0 0 0 0 0 0 0 0 0 0 0 0
0 0 0 0 0 0 0 0 0 0 0 0 0 0 0 0 0 0 0 0 0 0 0 0 0 0 0 0 0 0 0 0 0 0 0 0 0 0 0 0 0 0 0
0 0 0 0 0 0 0 0 0 0 0 0 0 0 0 0 0 0 0 0 0 0 0 0 0 0 0 0 0 -0 -0 -0 0 0 0 -0 0 0 0 0 0 0 0
0 0 0 0 0 0 0 0 0 0 0 0 0 0 0 0 0 0 0 0 0 0 0 0 0 0 0 -0 -0 -0 -0 -0 -0 0 0 0 0 0 0 0 0 0 0
0 0 0 0 0 0 0 0 0 0 0 0 0 0 0 0 0 0 0 0 0 0 0 0 0 0 0 -0 -0 -0 -0 -0 -0 0 0 0 0 0 0 0 0 0 0
1 1 1 1 0 0 0 0 0 0 0 0 0 0 0 0 0 0 0 0 0 0 0 0 0 0 0 -0 -0 -0 -0 -0 0 0 0 0 0 0 0 0 0 0 0
1 1 1 0 0 0 0 0 0 0 0 0 0 0 0 0 0 0 0 0 0 0 0 0 0 0 0 -0 -0 -0 -0 0 0 0 0 0 0 0 0 0 0 0 0
1 1 0 0 0 0 0 0 0 0 0 0 0 0 0 0 0 0 0 0 0 0 0 0 0 0 0 0 -0 -0 0 0 0 0 0 0 0 0 0 0 0 0 0
0 0 0 0 0 0 0 0 0 0 0 0 0 0 0 0 0 0 0 0 0 0 0 0 0 0 0 0 0 0 0 0 0 0 0 0 0 0 0 0 0 0 0
0 0 0 0 0 0 0 0 0 0 0 0 0 0 0 0 0 0 0 0 0 0 0 0 0 0 0 0 0 0 0 0 0 0 0 0 0 0 0 0 0 0 0
0 0 0 0 0 0 0 0 0 0 0 0 0 0 0 0 0 0 0 0 0 0 0 0 0 0 0 0 0 0 0 0 0 0 0 0 0 0 0 0 0 0 0
0 0 0 0 0 0 0 0 0 0 0 0 0 0 0 0 0 0 0 0 0 0 0 0 0 0 0 0 0 0 0 0 0 0 0 0 1 1 1 1 1 1 0
0 0 0 0 0 0 0 0 0 0 0 0 0 0 0 0 0 0 0 0 0 0 0 0 0 0 0 0 0 0 0 0 0 0 0 0 1 1 1 0 0 1 1
0 0 0 0 0 0 0 0 0 0 0 0 0 0 0 0 0 0 0 0 0 0 0 0 0 0 0 0 0 0 0 0 0 0 0 0 0 1 1 1 1 1 1
1 1 1 1 1 1 0 0 0 0 0 0 0 0 0 0 0 0 0 0 0 0 0 0 0 0 0 0 0 0 0 0 0 0 0 0 0 0 1 1 1 1 1
1 1 1 1 1 0 0 0 0 0 0 0 0 0 0 0 0 0 0 0 0 0 0 0 0 0 0 0 0 0 0 0 0 0 0 0 0 0 0 1 1 1 1
1 1 1 1 0 0 0 0 0 0 0 0 0 0 0 0 0 0 0 0 0 0 0 0 0 0 0 0 0 0 0 0 0 0 0 0 0 0 0 0 1 1 1
1 1 1 0 0 0 0 0 0 0 0 0 0 0 0 0 0 0 0 0 0 0 0 0 0 0 0 0 0 0 0 0 0 0 0 0 0 0 0 0 0 0 0
0 0 0 0 0 0 0 0 0 0 0 0 0 0 0 0 0 0 0 0 0 0 0 0 0 0 0 0 0 0 0 0 0 0 0 0 0 0 0 0 0 0 0
0 0 0 0 0 0 0 0 0 0 0 0 0 0 0 0 0 0 0 0 0 0 0 0 0 0 0 0 0 0 0 0 0 0 0 0 0 0 0 0 0 0 0
0 0 0 0 0 0 0 0 0 0 0 0 0 0 0 0 0 0 0 0 0 0 0 0 0 0 0 0 0 0 0 0 0 0 0 0 0 0 0 0 0 0 0
0 0 0 0 0 0 0 0 0 0 0 0 0 0 0 0 0 0 0 0 0 0 0 0 0 0 0 0 0 0 0 0 0 0 0 0 0 0 0 0 0 0 0
0 0 0 0 0 0 0 0 0 0 0 0 0 0 0 0 0 0 0 0 0 0 0 0 0 0 0 0 0 0 0 0 0 0 0 0 0 0 0 0 0 0 0
0 0 0 0 0 0 0 0 0 0 0 0 0 0 0 0 0 0 0 0 0 0 0 0 0 0 0 0 0 0 0 0 0 0 0 0 0 0 0 0 0 0 0
0 0 0 0 0 0 0 0 0 0 0 0 0 0 0 0 0 0 0 0 0 0 0 0 0 0 0 0 0 0 0 0 0 0 0 0 0 0 0 0 0 0 0
Wind_Speed
10 11 17 19 19 19 18 18 18 18 18 18 18 18 18 18 17 16 15 15 14 13 13 12 12 12 12 12 13 13 13 13 13 14 14 14 15 15 16 16 15 11 17
14 14 18 19 19 18 18 18 18 17 17 17 17 17 17 16 16 15 14 14 13 13 13 12 12 12 12 12 11 12 12 12 12 14 14 13 13 14 15 15 14 10 16
17 14 16 18 18 18 18 18 17 17 17 16 16 16 15 15 15 14 14 13 13 12 12 11 11 11 11 10 10 10 10 10 11 12 12 6 8 13 14 15 15 15 15
16 12 14 18 18 18 18 17 17 17 16 16 15 15 15 14 14 13 13 13 12 12 11 11 10 10 10 9 9 8 8 8 8 10 5 4 6 14 15 15 15 14 15
13 11 14 20 19 18 17 16 16 16 16 16 15 15 14 14 13 12 12 12 11 11 11 10 9 9 8 8 7 6 6 5 5 6 5 5 5 13 15 15 14 14 14
12 10 14 19 18 18 17 16 16 16 16 15 15 14 14 13 13 12 11 11 10 10 10 10 9 8 7 6 6 5 4 3 4 4 6 6 5 12 15 15 14 14 14
11 9 12 18 18 17 17 16 16 16 15 15 14 14 13 13 12 12 11 10 10 10 9 9 9 7 6 5 4 3 3 3 3 4 6 5 6 13 15 15 14 13 13
12 9 10 17 18 17 16 16 16 15 15 14 14 13 13 12 11 11 10 10 10 10 9 8 8 7 6 5 3 1 1 2 4 4 6 5 10 13 15 14 14 14 13
11 10 7 9 12 16 16 15 15 14 14 14 13 13 12 12 11 11 10 10 9 9 9 8 8 8 7 5 4 2 1 1 2 2 6 5 11 14 15 15 14 14 14
9 9 7 6 6 7 9 14 15 14 13 13 12 12 11 10 10 10 9 9 9 9 9 9 8 8 7 6 5 4 3 0 2 2 3 6 13 15 15 15 15 14 14
10 8 8 7 6 6 6 10 11 12 12 11 9 11 8 4 4 5 8 10 10 10 9 9 8 8 7 6 6 6 3 1 1 2 3 9 15 16 16 16 15 15 15
10 10 9 9 8 7 6 6 4 5 5 4 3 4 3 3 3 5 6 10 10 9 8 8 8 7 5 2 4 5 2 2 2 2 4 10 14 15 16 16 16 16 16
10 10 9 8 8 7 4 4 2 2 3 3 4 3 3 2 2 2 2 4 4 6 3 4 4 2 2 2 2 2 3 2 1 2 4 11 14 16 17 17 16 16 17
9 8 7 7 7 6 5 4 4 3 2 2 3 4 3 2 2 2 2 2 2 1 2 2 2 3 3 4 3 3 3 3 2 2 3 11 14 15 16 17 17 17 17
7 7 6 7 7 6 5 3 4 3 3 3 2 3 3 2 2 2 1 1 2 2 2 2 2 3 3 3 3 3 4 4 4 3 2 10 13 14 16 17 18 19 19
8 7 7 7 6 7 5 4 3 3 3 3 3 3 3 3 3 2 2 1 1 2 2 2 2 2 1 1 2 3 3 4 4 4 4 7 14 15 16 17 18 19 20
8 7 7 7 6 7 6 5 4 3 3 3 3 3 3 3 3 3 2 1 1 1 1 1 1 0 1 1 2 3 3 4 4 5 5 5 7 14 16 17 18 19 20
7 6 6 7 6 6 5 4 3 3 3 2 2 3 3 3 3 3 1 1 0 1 1 1 1 0 1 1 2 3 2 3 4 4 4 5 5 7 12 18 19 20 21
7 6 5 6 6 5 4 4 3 3 3 2 2 2 2 3 3 3 2 1 1 1 1 0 1 1 1 2 3 3 3 3 3 4 5 6 7 7 6 11 18 19 21
7 7 6 6 5 5 4 3 3 3 1 2 2 2 3 3 4 3 2 2 2 2 2 1 0 0 1 2 3 3 3 4 3 4 5 5 5 7 7 8 8 11 19
7 7 6 5 4 3 3 2 2 1 1 1 1 2 3 3 3 3 2 2 2 2 1 1 1 1 1 1 1 3 4 3 4 4 3 3 4 6 6 7 6 6 7
6 6 6 6 4 3 2 2 2 2 1 1 1 1 1 2 3 4 3 2 2 2 2 2 2 1 2 1 1 1 4 5 4 3 2 2 3 3 4 6 6 7 6
7 7 7 6 5 4 3 3 3 3 3 3 2 1 1 1 2 2 3 3 2 2 1 1 2 2 1 2 1 2 0 2 4 4 3 2 2 2 3 3 5 6 7
7 7 6 6 5 4 4 4 4 3 2 1 1 1 2 2 0 1 2 3 3 2 2 1 2 1 1 1 2 0 2 3 2 4 4 3 3 2 3 3 3 4 5
9 7 6 6 5 5 5 5 5 3 2 1 1 2 2 3 2 1 2 2 2 1 1 1 1 1 1 1 1 1 1 1 2 2 4 4 4 3 3 3 2 3 3
7 7 7 7 5 5 6 5 6 5 3 3 2 2 2 2 2 2 2 2 2 1 1 1 1 1 1 1 2 2 2 1 2 1 3 3 4 4 3 3 2 3 3
Wind_Direction
154 155 148 140 134 130 126 123 120 118 116 115 114 114 113 113 114 114 114 114 114 112 108 105 103 101 100 102 102 103 106 108 110 111 112 114 117 117 116 115 113 112 114
148 152 147 142 138 134 131 128 126 124 123 121 121 120 119 119 119 119 119 118 116 114 111 108 106 104 103 104 105 106 108 110 112 111 109 110 115 118 119 117 117 120 119
142 146 145 142 139 137 134 133 131 130 128 127 126 126 125 125 125 124 124 121 118 117 115 113 111 109 107 107 106 106 107 110 114 112 107 100 112 120 122 121 121 121 121
139 141 144 141 140 139 137 137 136 135 133 133 133 132 131 131 131 130 129 126 124 122 120 118 116 114 112 110 107 105 105 108 116 122 116 114 116 121 124 124 125 125 124
135 139 145 142 140 139 140 140 140 140 140 140 140 139 138 138 136 135 133 132 131 129 127 125 123 120 117 114 110 104 100 102 109 121 130 120 117 128 128 129 129 129 128
133 138 144 141 140 140 141 142 142 144 144 144 145 145 144 144 143 142 142 140 139 138 135 133 131 129 127 124 117 107 93 78 90 113 132 135 133 137 135 135 135 134 133
134 139 142 141 141 142 143 144 144 146 147 148 149 150 150 152 152 151 151 150 147 147 145 143 142 142 141 137 128 112 83 58 91 124 139 145 147 144 143 141 141 140 138
134 136 140 142 143 143 144 146 147 148 149 151 153 155 157 157 156 157 158 159 157 155 156 156 155 157 161 162 161 148 62 56 87 124 151 155 158 152 150 149 148 148 147
133 134 135 141 145 147 148 149 150 151 153 155 157 160 162 163 165 166 167 169 168 167 169 171 173 175 179 185 195 212 254 70 88 118 159 162 166 160 158 156 156 156 155
135 133 130 133 137 142 147 152 153 154 157 159 162 165 167 171 174 176 176 181 182 182 182 183 186 191 195 203 215 228 247 335 108 157 165 178 177 168 166 165 165 164 163
141 140 147 149 149 147 150 157 156 158 162 164 168 171 168 169 177 184 191 192 193 194 194 194 196 201 208 218 229 235 242 183 163 187 180 189 183 177 174 174 173 172 172
155 159 163 162 160 162 165 148 153 159 161 161 162 165 161 166 185 190 200 201 200 200 200 203 209 211 211 222 246 245 227 213 201 195 193 193 187 185 182 181 181 179 179
161 162 167 166 164 167 148 149 158 156 156 161 167 171 164 163 180 191 188 206 204 205 207 219 219 216 209 207 223 228 224 226 210 211 199 193 193 192 190 188 188 186 186
157 152 158 157 154 151 139 152 156 152 156 161 167 167 155 158 160 167 176 186 181 178 197 220 208 214 218 220 217 219 219 220 217 218 218 200 198 197 194 194 195 195 194
149 140 136 134 134 126 122 137 136 138 148 153 143 155 153 144 145 145 159 165 176 177 188 206 214 217 219 228 223 216 214 220 218 207 217 204 201 201 198 201 203 202 200
143 134 129 117 119 116 114 116 124 130 134 128 125 137 138 135 137 128 122 132 182 194 193 204 215 214 224 225 235 225 223 224 224 211 212 210 208 206 207 206 208 209 207
138 131 126 120 115 111 109 113 118 122 116 117 128 138 137 133 130 121 128 138 180 189 183 187 206 177 234 241 249 246 235 232 230 219 212 207 212 216 216 216 217 215 213
130 127 126 121 114 111 112 113 115 115 116 126 138 140 143 140 132 125 133 142 174 130 122 138 130 143 275 282 278 272 259 244 241 235 221 213 211 218 220 221 220 219 218
128 126 116 116 114 112 111 107 105 105 114 136 139 136 141 141 140 134 132 118 91 79 56 65 101 141 263 286 279 272 270 259 251 249 237 227 220 219 218 225 224 222 222
129 129 123 111 106 104 92 82 75 75 87 120 138 149 144 141 138 131 118 90 79 68 35 22 8 307 241 266 289 295 279 268 261 252 245 238 227 224 220 223 223 228 226
130 126 120 113 111 105 96 97 100 100 104 106 147 164 158 147 134 123 117 96 85 81 48 11 12 348 320 344 3 326 311 286 270 258 253 250 245 239 226 220 217 219 228
142 135 127 124 129 125 122 132 133 125 112 110 83 86 133 134 136 139 137 129 115 93 55 38 45 31 337 23 79 7 339 334 328 300 290 264 264 258 239 232 222 217 221
153 148 142 141 136 128 117 92 73 60 48 42 42 31 17 97 133 145 154 142 129 115 96 59 79 87 341 332 81 137 134 287 313 319 323 316 308 280 261 245 228 223 220
163 153 148 143 139 136 122 109 109 110 109 131 134 27 2 10 340 169 152 144 139 130 125 117 109 117 125 312 324 224 195 200 240 310 317 320 320 302 292 281 261 236 224
164 158 153 146 143 141 133 128 119 117 136 135 81 45 17 3 8 56 120 129 132 133 137 119 77 86 156 196 241 278 297 272 201 207 292 317 324 305 292 278 268 256 235
162 158 153 149 153 151 140 133 133 134 128 102 75 50 20 11 18 42 88 109 130 142 166 202 222 258 248 238 232 222 217 237 249 226 257 291 298 294 296 287 280 272 257